User: anonymous   Login
Location: Melbourne
(37.8170°S, 144.9670°E)
Time: 00:09:49
(UTC+10:00)
Language:

Explorer 11/Cluster Stage 4 - Orbit

View from above orbital plane
View from above orbital plane
View from above satellite
View from above satellite

Ground track
Ground track

The orbit data is extracted from the following two-line orbital elements,

1 00107U 61013A   15210.22047495  .00001905  00000-0  24249-3 0  9990
2 00107 028.7881 174.3195 0554163 344.4335 132.2451 14.07062291713904
Epoch (UTC): 29 July 2015 05:17:29
Eccentricity: 0.0554163
inclination: 28.7881°
perigee height: 468 km
apogee height: 1271 km
right ascension of ascending node: 174.3195°
argument of perigee: 344.4335°
revolutions per day: 14.07062291
mean anomaly at epoch: 132.2451°
orbit number at epoch: 71390

The dashed part of the orbit path shows where the satellite is in the earth's shadow,  

DLR